Wind_Speed
25 24 26 18 18 19 19 22 25 23 19 23 26 30 26 21 26 26 24 24 25 25 22 25 25 25 25 26 26 26 26 26 26 25 25 25 24 24 24 23 22 24 23 21
26 31 21 19 20 22 23 24 27 26 24 28 32 38 34 32 32 32 31 31 29 27 27 28 28 29 29 30 30 29 29 29 28 26 27 28 27 25 25 25 23 25 23 21
25 20 16 17 21 24 24 27 26 26 26 30 33 45 40 36 37 35 35 33 32 30 30 31 33 33 34 34 33 32 31 32 31 28 28 29 29 29 27 25 25 24 23 21
26 28 28 27 29 24 31 26 26 26 25 25 23 18 32 39 39 37 34 33 31 28 28 30 33 34 34 34 35 36 34 33 31 30 30 30 30 27 24 24 25 24 23 22
35 31 30 32 34 27 32 27 26 24 25 27 39 19 27 23 38 38 34 28 22 26 26 24 25 28 30 33 35 34 33 30 31 31 31 31 30 27 27 25 25 25 25 25
42 40 36 32 29 23 23 21 20 24 21 11 43 27 42 36 37 33 24 26 24 18 21 23 26 28 31 33 36 36 32 30 30 32 32 32 30 28 27 26 26 26 26 26
45 48 45 42 35 28 26 20 4 4 4 11 17 19 43 26 27 33 22 22 19 25 29 28 28 27 26 28 32 34 32 30 30 32 32 32 30 29 28 27 26 26 27 26
31 26 45 48 48 35 32 36 18 8 4 6 11 14 22 19 18 35 36 18 19 22 24 26 27 26 24 25 28 29 30 29 30 32 32 32 31 31 30 29 28 28 28 28
16 23 25 25 23 36 32 37 38 31 25 12 22 41 48 47 39 15 14 18 15 18 21 22 23 26 25 22 24 27 29 29 31 32 33 32 33 32 32 31 31 32 33 33
25 18 19 22 27 28 40 26 16 18 2 5 11 21 26 18 23 9 3 8 10 12 13 15 17 19 21 22 23 27 29 30 30 31 33 33 34 34 34 33 34 34 34 33
39 30 18 18 30 37 35 38 21 18 22 5 3 16 23 9 6 6 7 9 14 18 21 21 19 17 19 20 21 23 27 29 31 32 34 35 35 35 34 35 34 35 35 35
30 19 36 37 24 25 37 42 46 23 9 22 22 42 19 14 12 15 16 11 7 12 23 29 28 20 17 20 20 22 25 28 32 34 35 36 36 36 36 36 36 37 37 38
28 21 27 17 26 32 35 43 43 46 28 36 12 43 20 21 22 14 14 14 18 28 34 31 28 20 17 18 22 24 27 29 33 35 37 38 38 39 39 39 39 39 39 39
30 32 28 28 12 13 35 46 45 44 37 49 48 60 44 24 21 22 20 32 42 46 37 31 29 30 24 18 19 25 27 30 33 36 38 39 39 40 40 40 40 40 39 40
38 38 40 47 42 33 26 23 36 51 62 31 70 48 67 57 52 47 48 43 43 40 38 32 30 29 29 27 24 22 26 30 34 37 39 40 40 40 42 43 43 41 42 42
39 40 38 49 46 44 46 42 42 46 46 54 62 60 62 56 54 49 48 47 46 47 45 42 32 32 29 28 26 27 26 25 32 37 40 42 44 44 44 45 44 44 44 42
39 42 40 39 47 36 31 68 66 58 61 58 59 74 59 59 56 53 47 49 54 54 50 43 38 37 38 39 35 31 29 29 30 37 42 43 45 45 45 45 46 46 45 47
48 42 37 36 27 14 56 56 53 56 61 62 63 64 60 62 56 49 51 58 49 44 47 45 40 39 39 42 39 38 37 32 33 36 40 43 45 46 46 46 46 47 49 50
47 41 33 30 35 37 33 53 48 40 53 49 57 54 52 47 50 46 47 37 39 41 39 40 39 39 42 43 41 44 41 37 36 36 38 41 43 44 45 45 49 50 50 55
37 49 46 27 9 12 47 44 42 30 36 51 41 42 41 37 42 47 39 38 38 41 41 38 36 37 37 37 37 40 45 44 35 32 35 37 38 40 45 47 47 49 56 52
22 37 45 43 29 22 41 36 21 22 37 39 25 28 30 37 36 33 38 31 32 32 35 36 36 36 34 34 33 35 38 37 35 34 34 37 39 44 46 49 52 57 52 52
33 22 23 31 27 25 37 28 27 28 29 29 25 17 21 27 30 31 30 26 26 29 33 35 34 31 29 31 33 31 31 31 32 34 37 41 44 48 51 49 43 42 44 33
26 30 21 23 18 13 21 26 22 26 30 31 32 30 28 30 28 29 30 30 28 27 28 28 26 25 25 24 24 25 26 27 30 32 31 30 28 25 24 25 26 27 28 30
28 29 29 32 39 38 34 31 33 33 34 35 36 32 30 33 35 35 33 33 29 24 20 19 18 17 16 17 20 23 26 30 30 24 21 22 22 23 25 25 24 23 24 26
25 26 31 35 34 33 30 32 33 34 35 35 38 42 40 26 20 21 22 22 20 17 16 16 17 18 18 18 18 18 17 17 18 19 20 20 20 21 21 21 23 25 27 29
26 27 29 29 30 36 37 35 34 36 40 40 29 26 27 23 21 21 21 22 21 20 18 15 13 13 14 15 15 15 16 16 17 18 19 20 22 23 25 26 26 26 27 29
Wind_Direction
243 245 248 266 275 272 269 270 274 277 278 268 269 272 271 263 263 258 258 263 266 269 269 262 257 254 252 252 254 256 258 261 266 269 262 251 248 252 254 250 245 245 241 238
242 249 261 256 255 261 261 266 270 281 277 271 279 276 275 268 262 266 269 269 270 271 265 264 264 261 257 255 254 256 259 261 264 267 259 248 248 251 250 248 240 239 238 233
252 255 253 250 254 259 266 268 277 282 285 281 284 280 274 274 273 271 270 272 271 270 270 267 267 265 260 257 256 259 260 261 263 266 258 247 247 248 245 241 237 235 230 227
257 249 251 253 254 260 268 270 274 277 281 281 284 287 276 276 278 277 276 276 280 275 269 268 266 264 261 259 257 258 260 259 258 259 253 244 246 248 246 238 233 229 226 223
250 257 257 257 263 265 268 272 274 275 274 276 274 264 279 282 281 285 291 291 283 266 261 265 267 266 259 256 257 257 258 258 253 252 248 241 243 240 232 228 227 225 225 221
247 250 253 258 258 255 258 260 264 273 275 262 265 248 275 272 286 292 296 293 286 251 264 274 264 270 257 249 251 252 254 253 253 246 244 240 240 235 232 231 226 226 224 223
241 245 247 250 251 246 239 240 269 281 200 244 269 244 258 270 277 292 294 302 282 273 278 277 270 273 262 257 254 252 250 249 250 243 241 238 236 231 228 227 228 228 228 229
234 247 248 247 246 244 238 234 215 214 209 272 271 243 269 285 277 286 294 289 284 277 276 276 275 271 260 257 247 242 243 246 249 243 237 235 233 231 229 226 224 223 226 231
227 239 244 246 248 239 230 225 242 246 272 290 264 266 271 273 281 289 288 282 295 290 283 279 275 267 262 255 247 240 241 244 247 236 233 232 233 231 230 227 224 223 229 236
232 246 251 243 237 227 225 237 210 205 236 255 263 270 253 260 281 245 269 250 262 282 293 304 306 273 252 251 251 240 240 242 236 231 231 232 232 231 229 226 227 232 237 243
237 237 246 232 222 227 217 222 213 218 225 197 303 266 287 261 193 205 276 241 281 278 289 303 308 290 262 247 249 245 243 239 231 226 229 231 232 231 229 230 233 236 240 246
235 240 244 241 242 235 232 234 221 210 206 227 248 267 258 258 254 266 262 262 291 304 300 294 304 293 285 261 253 252 250 239 231 229 232 233 232 231 231 233 236 239 244 249
230 227 243 258 245 238 226 228 231 223 236 240 207 260 263 259 265 244 258 240 284 298 299 292 288 293 284 275 264 260 248 244 238 236 234 234 232 232 232 232 236 240 245 251
243 238 225 232 226 241 228 233 229 227 225 237 239 250 251 259 258 259 268 278 285 295 298 291 273 279 279 282 276 263 253 246 243 240 238 238 238 237 235 236 240 244 248 253
239 237 242 252 247 248 259 254 238 224 234 220 252 251 265 266 268 270 280 278 286 288 293 294 275 279 280 280 273 274 264 255 247 244 243 241 239 237 238 240 242 245 249 253
232 242 246 251 251 245 250 251 247 245 249 246 259 263 265 271 272 270 277 284 283 290 292 292 280 270 271 276 279 273 265 263 258 252 246 244 239 235 237 240 244 247 250 253
238 249 245 252 254 258 253 251 250 249 249 247 251 263 272 269 272 275 280 286 287 286 284 282 275 271 269 271 273 267 265 255 255 251 248 245 242 239 240 243 246 249 251 254
229 227 226 243 256 225 254 264 264 253 259 255 257 267 272 273 277 281 280 280 279 273 276 276 272 265 264 267 267 258 261 261 256 250 247 246 244 242 242 245 247 249 252 253
244 242 240 232 244 247 260 261 253 241 265 263 260 273 277 279 280 269 268 273 271 268 267 267 262 257 258 261 263 250 251 258 258 254 247 244 244 245 246 248 250 251 252 256
237 234 238 238 234 235 253 261 258 263 252 268 261 268 281 277 269 277 275 274 270 267 264 263 262 262 262 260 256 253 250 252 254 252 248 243 244 245 247 250 252 253 253 257
231 226 228 237 244 253 251 259 266 204 255 276 277 274 267 266 271 272 271 267 262 261 260 263 262 261 256 249 248 248 248 249 247 241 238 237 239 243 248 250 249 250 257 256
232 220 227 235 241 239 251 253 240 254 258 264 268 269 267 261 262 262 262 262 259 262 263 262 263 260 255 250 249 251 249 244 240 241 245 248 251 255 258 259 258 255 254 260
231 225 222 222 232 240 258 267 267 254 253 258 266 272 251 247 245 252 263 271 269 264 262 263 261 257 252 246 245 243 237 235 240 250 261 254 251 250 253 259 260 257 254 255
241 245 246 259 269 273 270 269 267 273 275 274 273 251 242 245 247 261 260 261 265 265 257 251 250 249 248 246 244 247 251 256 263 262 261 263 263 262 261 261 263 266 271 272
255 254 257 263 266 269 267 271 270 266 269 268 275 253 254 248 248 250 255 258 255 249 248 251 254 255 254 253 255 255 255 256 257 260 262 263 262 263 266 269 269 268 267 268
255 267 267 244 269 285 283 274 270 262 258 258 242 244 234 240 240 247 250 250 257 259 260 257 254 254 251 247 244 245 249 253 255 258 259 260 263 265 266 265 265 265 267 269
Height
3147 3148 3148 3152 3153 3153 3153 3152 3151 3152 3153 3151 3149 3146 3149 3151 3148 3148 3148 3149 3149 3150 3152 3151 3151 3152 3153 3154 3155 3156 3157 3157 3157 3157 3157 3158 3159 3160 3161 3162 3163 3164 3165 3166
3144 3140 3148 3148 3148 3147 3148 3147 3146 3147 3148 3146 3143 3137 3140 3141 3141 3141 3142 3141 3141 3143 3144 3144 3144 3146 3147 3148 3148 3149 3150 3151 3152 3152 3152 3152 3153 3154 3155 3156 3158 3159 3160 3162
3138 3140 3142 3143 3143 3143 3144 3143 3143 3144 3143 3139 3136 3125 3130 3133 3132 3134 3133 3134 3134 3134 3135 3136 3136 3138 3139 3140 3141 3142 3143 3144 3145 3145 3145 3146 3148 3148 3149 3151 3152 3154 3156 3158
3132 3134 3136 3137 3137 3141 3137 3141 3140 3140 3140 3135 3133 3117 3117 3123 3124 3125 3126 3126 3126 3126 3126 3127 3127 3127 3130 3132 3133 3134 3135 3136 3138 3138 3138 3140 3142 3143 3145 3146 3148 3150 3152 3154
3122 3125 3128 3129 3131 3136 3133 3137 3137 3136 3135 3132 3126 3127 3102 3110 3112 3117 3119 3118 3117 3117 3117 3118 3118 3119 3120 3122 3124 3125 3126 3128 3129 3130 3131 3133 3135 3137 3138 3140 3142 3144 3146 3149
3116 3119 3121 3122 3126 3129 3129 3131 3133 3131 3131 3125 3113 3118 3093 3102 3104 3107 3110 3111 3110 3109 3110 3110 3110 3109 3109 3111 3113 3115 3118 3119 3121 3122 3124 3127 3129 3131 3133 3135 3137 3140 3142 3144
3106 3106 3111 3115 3119 3123 3123 3127 3131 3130 3128 3111 3106 3105 3086 3093 3097 3099 3101 3104 3104 3103 3102 3102 3102 3101 3100 3101 3103 3106 3109 3111 3113 3115 3117 3120 3123 3126 3128 3130 3133 3135 3138 3139
3100 3101 3100 3102 3106 3113 3116 3119 3121 3124 3120 3104 3101 3086 3078 3085 3089 3092 3094 3095 3095 3095 3094 3094 3093 3092 3092 3092 3094 3097 3100 3103 3106 3108 3111 3114 3117 3119 3122 3124 3127 3130 3133 3134
3093 3091 3092 3095 3099 3106 3106 3108 3111 3115 3110 3108 3088 3076 3075 3080 3082 3084 3087 3087 3088 3088 3087 3086 3085 3084 3084 3086 3087 3090 3092 3095 3097 3100 3103 3107 3110 3113 3116 3118 3121 3123 3125 3127
3086 3087 3086 3088 3091 3094 3097 3102 3107 3109 3112 3110 3077 3071 3067 3071 3075 3077 3080 3082 3083 3082 3082 3080 3078 3077 3077 3079 3080 3082 3084 3087 3089 3093 3097 3100 3103 3106 3109 3111 3114 3117 3119 3121
3080 3081 3080 3081 3077 3081 3090 3091 3094 3097 3097 3093 3087 3058 3063 3066 3069 3072 3076 3077 3079 3079 3079 3077 3075 3073 3072 3072 3073 3075 3077 3079 3083 3086 3089 3093 3096 3099 3102 3105 3107 3110 3112 3114
3072 3073 3070 3071 3073 3076 3079 3077 3080 3084 3086 3085 3081 3045 3060 3064 3067 3069 3071 3073 3073 3074 3075 3072 3070 3069 3068 3068 3068 3070 3072 3074 3076 3079 3083 3086 3089 3092 3094 3097 3100 3102 3105 3106
3065 3065 3067 3066 3066 3065 3065 3068 3074 3077 3079 3071 3077 3034 3052 3059 3062 3064 3066 3067 3068 3067 3068 3067 3065 3064 3064 3063 3063 3064 3066 3068 3070 3073 3075 3077 3081 3084 3087 3089 3092 3094 3096 3098
3057 3054 3054 3048 3052 3055 3056 3058 3062 3067 3069 3051 3051 3037 3046 3052 3057 3059 3062 3062 3061 3060 3061 3061 3059 3058 3059 3058 3058 3058 3059 3060 3063 3065 3067 3070 3074 3077 3080 3083 3085 3087 3089 3090
3044 3042 3045 3041 3047 3049 3048 3050 3053 3053 3041 3053 3022 3046 3029 3046 3050 3052 3054 3053 3052 3053 3053 3054 3053 3052 3051 3051 3052 3052 3053 3054 3055 3057 3059 3063 3066 3069 3072 3074 3076 3079 3080 3081
3032 3032 3037 3032 3034 3039 3040 3045 3040 3036 3040 3043 3029 3034 3032 3037 3041 3040 3042 3042 3042 3044 3044 3045 3045 3045 3043 3043 3043 3044 3046 3046 3047 3049 3051 3054 3056 3058 3062 3065 3068 3070 3072 3072
3023 3025 3028 3021 3024 3031 3031 3012 3015 3028 3028 3029 3027 3002 3030 3028 3030 3032 3033 3032 3031 3032 3032 3033 3033 3034 3035 3035 3034 3035 3035 3036 3038 3039 3041 3044 3047 3050 3053 3056 3058 3060 3062 3061
3007 3012 3014 3012 3018 3012 2996 3003 3008 3009 3010 3015 3015 3005 3010 3013 3018 3021 3019 3019 3020 3019 3018 3018 3021 3022 3024 3023 3023 3024 3024 3026 3026 3027 3030 3034 3037 3041 3044 3046 3049 3050 3050 3049
2997 3004 3004 3004 2996 2997 2993 2985 2992 2999 2993 3000 2999 2999 3000 3007 3007 3000 3004 3011 3008 3007 3007 3006 3007 3008 3009 3011 3012 3012 3012 3014 3015 3017 3020 3024 3028 3032 3035 3036 3037 3037 3037 3036
2986 2991 2993 2994 2985 2982 2977 2982 2987 2994 2989 2981 2993 2992 2992 2997 2994 2985 2996 2997 2996 2995 2995 2995 2995 2996 2997 2999 3000 3001 3002 3004 3006 3008 3011 3016 3020 3023 3024 3024 3024 3025 3023 3027
2975 2979 2978 2979 2977 2974 2974 2975 2978 2983 2978 2975 2978 2982 2983 2982 2984 2986 2982 2985 2985 2985 2986 2987 2987 2987 2988 2989 2990 2991 2993 2995 2997 2999 3002 3005 3007 3009 3011 3011 3011 3011 3014 3016
2964 2967 2967 2972 2969 2966 2967 2967 2968 2970 2972 2973 2972 2974 2975 2975 2975 2975 2976 2977 2978 2978 2978 2979 2979 2979 2979 2981 2983 2985 2986 2985 2987 2990 2993 2996 2998 2999 2999 3000 3002 3004 3006 3007
2956 2956 2958 2960 2956 2958 2960 2963 2962 2962 2964 2966 2968 2966 2968 2968 2968 2968 2969 2969 2970 2971 2971 2971 2972 2972 2973 2973 2976 2978 2980 2981 2983 2984 2986 2988 2989 2991 2993 2995 2997 2998 2997 2999
2946 2949 2949 2952 2950 2951 2953 2954 2954 2954 2955 2957 2959 2958 2958 2959 2960 2961 2962 2963 2964 2964 2964 2965 2966 2967 2968 2970 2972 2973 2975 2977 2977 2978 2979 2981 2984 2985 2987 2988 2988 2989 2991 2992
2939 2941 2941 2941 2943 2944 2946 2946 2947 2947 2946 2947 2948 2949 2949 2950 2952 2953 2955 2957 2958 2958 2959 2960 2962 2963 2964 2965 2967 2969 2970 2971 2973 2974 2975 2976 2977 2978 2979 2980 2982 2983 2984 2984
2930 2933 2934 2932 2934 2935 2935 2937 2937 2938 2938 2939 2939 2940 2942 2944 2946 2947 2949 2952 2953 2954 2955 2956 2957 2959 2959 2961 2962 2964 2967 2968 2969 2970 2971 2972 2973 2973 2974 2974 2975 2976 2977 2977